Weather Roundup
Issued by NWS Chicago, IL

Home | Current Version | Previous Version | Text Only | Print | Product List | Glossary Off
Versions: 1 2 3 4 5 6 7 8 9 10 11 12 13 14 15 16 17 18 19 20 21 22 23 24 25 26 27 28 29 30 31 32 33 34 35 36 37 38 39 40 41 42 43 44 45 46 47 48 49 50

000
NZUS59 KLOT 270504
HRRLOT

CHICAGO AREA WEATHER ROUNDUP
NATIONAL WEATHER SERVICE CHICAGO/ROMEOVILLE IL
1200 AM CDT THU JUL 27 2017

NOTE: "FAIR" INDICATES FEW OR NO CLOUDS BELOW 12,000 FEET WITH NO
SIGNIFICANT WEATHER AND/OR OBSTRUCTIONS TO VISIBILITY.

* THESE STATIONS ARE NOT UNDER NWS QUALITY CONTROL. THEY ALSO MAY NOT
  REPORT WEATHER SUCH AS PRECIPITATION OR FOG.

ILZ005-006-012>014-019>023-270600-
NORTHEAST ILLINOIS

CITY           SKY/WX    TMP DP  RH WIND       PRES   REMARKS
OHARE          LGT RAIN  78  71  79 SW5       29.95F HX  80
MIDWAY         LGT RAIN  78  72  81 W3        29.95F FOG     HX  80
AURORA         LGT RAIN  72  71  97 NE5       29.96F FOG
LANSING*       LGT RAIN  75  69  81 SE3       29.95F
JOLIET*        LGT RAIN  75  74  97 CALM      29.95F
WAUKEGAN       CLOUDY    73  72  96 CALM      29.95F FOG
DUPAGE AIRPORT LGT RAIN  75  75 100 SW3       29.96F FOG
WHEELING       CLOUDY    77  74  90 SW3       29.97F
MORRIS*        LGT RAIN  73  71  94 W6        29.95S
LEWIS AIRPORT* LGT RAIN  73  70  91 SE5       29.96F
NORTHERLY ISL    N/A     74  70  87 CALM        N/A
$$

WIZ051-052-058>065-066-070>072-270600-
SOUTHEAST WISCONSIN

CITY           SKY/WX    TMP DP  RH WIND       PRES   REMARKS
MILWAUKEE      CLOUDY    75  71  87 W3        29.95F
KENOSHA*       CLOUDY    73  70  90 S6        29.95F
RACINE*        CLOUDY    75  71  87 CALM      29.97S
WAUKESHA       CLOUDY    68  68 100 NW3       29.98S
$$

INZ001>003-010>013-019-020-270600-
NORTHWEST INDIANA

CITY           SKY/WX    TMP DP  RH WIND       PRES   REMARKS
GARY*          CLOUDY    78  71  79 SE6       29.95F
MICHIGAN CITY* NOT AVBL
RENSSELAER*    NOT AVBL
VALPARAISO     MOCLDY    74  71  91 E5        29.96F
$$

LMZ740>746-270600-
SOUTHERN LAKE MICHIGAN

STATION/POSITION TIME  SKY/WX   TEMP WIND        PRES    VSBY
                                AIR  DIR/SP/G
                 (UTC)          (F)  (DEG/KT/KT) (MB)    (MI)
HARRISON CRIB    0440            76  160/  9/ 10   N/A
BURNHAM HARBOR   0500            75                N/A
CALUMET HARBOR   0430            78  150/  2/  5 1013.9F
BURNS HARBOR     0440            78  160/  9/ 13 1014.9F
MICHIGAN CITY    0440            76  140/  5/  6   N/A
$$

ABBREVIATIONS USED IN REMARKS
   TC - TEMPERATURE IN CELSIUS
  WCI - WIND CHILL INDEX
   HX - HEAT INDEX
  VSB - VISIBILITY
$$



USA.gov is the U.S. government's official web portal to all federal, state and local government web resources and services.